Find SPOT 5

NORAD ID: 27421 Int'l Des: 2002-021 Owner: CNES Country: F operational
LEORETROGRADESSO

Live Position

Loading 3D Globe...

About SPOT 5

Description loading...

Upcoming Passes

Passes for default location (London). Set your location on the main map for personalized predictions.

Altitude History

Loading altitude history...

Two-Line Element Set

1 27421U 02021A 26109.84449483 .00000329 00000-0 78609-4 0 9991
2 27421 97.9908 151.2790 0131063 97.9181 263.6916 14.54701966254360
Epoch: Apr 19, 2026 • Age: 7 hours

Current Status

Altitude 667.7 km
Velocity 7.55 km/s
Sub-Earth Point 21.38°N, 72.7°E
Launch Date May 4, 2002
Age 23.9 years
Type earth observation

Technical Details

Classification Payload
Mass 3000.00 kg
Dry Mass 2850.00 kg
Total Mass 3000.00 kg
Length 5.70 m
Diameter 3.10 m
Span 10.00 m
Shape Box + Pan
Manufacturer ASTT
Bus Type SPOT
Phase Status In Orbit
Owner/State CNES/F

Most Searched